Hourly Weather Bolshoe Konshino

Today, 30 July, Friday

Time Temperature Precipitation Wind Pressure Humidity
00:00 +18°C° 0 mm 1 mps 734 mmHg 90%
01:00 +18°C° 0 mm 1 mps 734 mmHg 92%
02:00 +18°C° 0 mm 1 mps 734 mmHg 93%
03:00 +18°C° 0.3 mm 1 mps 734 mmHg 94%
04:00 +18°C° 0.3 mm 1 mps 734 mmHg 96%
05:00 +19°C° 0.3 mm 1 mps 734 mmHg 97%
06:00 +19°C° 0.7 mm 1 mps 734 mmHg 96%
07:00 +20°C° 0.7 mm 1 mps 734 mmHg 96%
08:00 +19°C° 0 mm 2 mps 734 mmHg 95%
09:00 +20°C° 0.6 mm 2 mps 734 mmHg 93%
10:00 +20°C° 0.6 mm 2 mps 734 mmHg 91%
11:00 +20°C° 0.6 mm 2 mps 734 mmHg 89%
12:00 +21°C° 0.2 mm 2 mps 734 mmHg 80%
13:00 +24°C° 0.2 mm 3 mps 734 mmHg 70%
14:00 +24°C° 0 mm 3 mps 734 mmHg 68%
15:00 +23°C° 0.1 mm 2 mps 734 mmHg 66%
16:00 +23°C° 0.1 mm 2 mps 733 mmHg 64%
17:00 +23°C° 0.1 mm 2 mps 733 mmHg 62%
18:00 +20°C° 0.1 mm 2 mps 733 mmHg 68%
19:00 +19°C° 0.1 mm 2 mps 733 mmHg 74%
20:00 +19°C° 0.1 mm 1 mps 733 mmHg 80%
21:00 +17°C° 0 mm 2 mps 733 mmHg 82%
22:00 +16°C° 0 mm 2 mps 733 mmHg 84%
23:00 +15°C° 0 mm 2 mps 733 mmHg 86%

Tomorrow, 31 July, Saturday

Time Temperature Precipitation Wind Pressure Humidity
00:00 +16°C° 0 mm 2 mps 733 mmHg 84%
01:00 +16°C° 0 mm 2 mps 733 mmHg 82%
02:00 +16°C° 0 mm 3 mps 733 mmHg 80%
03:00 +16°C° 0 mm 3 mps 732 mmHg 80%
04:00 +14°C° 0 mm 3 mps 732 mmHg 80%
05:00 +14°C° 0 mm 3 mps 732 mmHg 80%
06:00 +17°C° 0 mm 4 mps 732 mmHg 72%
07:00 +17°C° 0 mm 5 mps 732 mmHg 64%
08:00 +20°C° 0 mm 5 mps 732 mmHg 56%
09:00 +20°C° 0 mm 5 mps 733 mmHg 56%
10:00 +21°C° 0 mm 5 mps 733 mmHg 56%
11:00 +21°C° 0 mm 5 mps 733 mmHg 56%
12:00 +22°C° 0 mm 5 mps 733 mmHg 57%
13:00 +22°C° 0 mm 5 mps 734 mmHg 58%
14:00 +22°C° 0 mm 4 mps 734 mmHg 59%
15:00 +22°C° 0.1 mm 4 mps 734 mmHg 62%
16:00 +21°C° 0.1 mm 4 mps 734 mmHg 65%
17:00 +21°C° 0.1 mm 4 mps 734 mmHg 68%
18:00 +20°C° 0.1 mm 3 mps 735 mmHg 75%
19:00 +19°C° 0.1 mm 2 mps 735 mmHg 82%
20:00 +17°C° 0.1 mm 2 mps 735 mmHg 89%
21:00 +17°C° 0 mm 2 mps 735 mmHg 90%
22:00 +16°C° 0 mm 2 mps 736 mmHg 91%
23:00 +16°C° 0 mm 2 mps 736 mmHg 92%

Day after tomorrow, 1 August, Sunday

Time Temperature Precipitation Wind Pressure Humidity
00:00 +16°C° 0 mm 2 mps 736 mmHg 91%
01:00 +15°C° 0 mm 2 mps 736 mmHg 91%
02:00 +15°C° 0 mm 2 mps 736 mmHg 91%
03:00 +15°C° 0 mm 2 mps 736 mmHg 89%
04:00 +16°C° 0 mm 2 mps 736 mmHg 87%
05:00 +16°C° 0 mm 2 mps 736 mmHg 85%
06:00 +17°C° 0.1 mm 2 mps 736 mmHg 85%
07:00 +17°C° 0.1 mm 3 mps 736 mmHg 84%
08:00 +18°C° 0.1 mm 4 mps 736 mmHg 83%
09:00 +18°C° 0.8 mm 3 mps 736 mmHg 87%
10:00 +18°C° 0.8 mm 3 mps 736 mmHg 91%
11:00 +18°C° 0.8 mm 3 mps 736 mmHg 95%
12:00 +19°C° 0.1 mm 3 mps 736 mmHg 91%
13:00 +20°C° 0.1 mm 3 mps 736 mmHg 87%
14:00 +21°C° 0.1 mm 4 mps 736 mmHg 84%
15:00 +22°C° 0.1 mm 3 mps 736 mmHg 76%
16:00 +24°C° 0.1 mm 3 mps 736 mmHg 69%
17:00 +25°C° 0.1 mm 3 mps 736 mmHg 61%
18:00 +24°C° 0 mm 2 mps 736 mmHg 65%
19:00 +21°C° 0 mm 2 mps 736 mmHg 69%
20:00 +19°C° 0 mm 2 mps 736 mmHg 74%
21:00 +18°C° 0 mm 2 mps 736 mmHg 74%
22:00 +17°C° 0 mm 2 mps 736 mmHg 75%
23:00 +16°C° 0 mm 2 mps 736 mmHg 75%

2 August, Monday

Time Temperature Precipitation Wind Pressure Humidity
00:00 +16°C° 0 mm 2 mps 736 mmHg 76%
01:00 +16°C° 0 mm 1 mps 736 mmHg 76%
02:00 +16°C° 0 mm 1 mps 736 mmHg 76%
03:00 +16°C° 0 mm 1 mps 736 mmHg 76%
04:00 +16°C° 0 mm 1 mps 736 mmHg 75%
05:00 +18°C° 0 mm 1 mps 736 mmHg 75%
06:00 +19°C° 0 mm 1 mps 736 mmHg 69%
07:00 +21°C° 0 mm 1 mps 736 mmHg 62%
08:00 +23°C° 0 mm 1 mps 736 mmHg 56%
09:00 +25°C° 0 mm 2 mps 735 mmHg 52%
10:00 +26°C° 0 mm 3 mps 735 mmHg 47%
11:00 +27°C° 0 mm 3 mps 734 mmHg 43%
12:00 +26°C° 0.1 mm 3 mps 734 mmHg 51%
13:00 +25°C° 0.1 mm 3 mps 733 mmHg 59%
14:00 +24°C° 0.1 mm 3 mps 732 mmHg 67%
15:00 +24°C° 2.3 mm 3 mps 732 mmHg 76%
16:00 +23°C° 2.3 mm 2 mps 731 mmHg 84%
17:00 +21°C° 2.3 mm 2 mps 730 mmHg 93%
18:00 +20°C° 0.6 mm 3 mps 731 mmHg 94%
19:00 +19°C° 0.6 mm 3 mps 731 mmHg 95%
20:00 +18°C° 0.6 mm 4 mps 731 mmHg 96%
21:00 +17°C° 0 mm 4 mps 731 mmHg 97%
22:00 +17°C° 0 mm 4 mps 732 mmHg 97%
23:00 +16°C° 0 mm 3 mps 732 mmHg 97%

3 August, Tuesday

Time Temperature Precipitation Wind Pressure Humidity
00:00 +16°C° 0 mm 3 mps 732 mmHg 96%
01:00 +14°C° 0 mm 3 mps 733 mmHg 96%
02:00 +14°C° 0 mm 3 mps 733 mmHg 95%
03:00 +14°C° 0 mm 3 mps 733 mmHg 95%
04:00 +15°C° 0 mm 2 mps 734 mmHg 94%
05:00 +15°C° 0 mm 2 mps 734 mmHg 93%
06:00 +16°C° 0 mm 2 mps 734 mmHg 88%
07:00 +17°C° 0 mm 2 mps 735 mmHg 83%
08:00 +18°C° 0 mm 3 mps 735 mmHg 78%
09:00 +19°C° 0 mm 3 mps 735 mmHg 71%
10:00 +20°C° 0 mm 3 mps 735 mmHg 65%
11:00 +20°C° 0 mm 3 mps 736 mmHg 58%
12:00 +21°C° 0 mm 3 mps 736 mmHg 56%
13:00 +21°C° 0 mm 3 mps 736 mmHg 54%
14:00 +22°C° 0 mm 3 mps 736 mmHg 51%
15:00 +21°C° 0.2 mm 3 mps 736 mmHg 58%
16:00 +20°C° 0.2 mm 3 mps 736 mmHg 65%
17:00 +19°C° 0.2 mm 3 mps 736 mmHg 72%
18:00 +18°C° 0.1 mm 2 mps 737 mmHg 78%
19:00 +16°C° 0.1 mm 2 mps 737 mmHg 83%
20:00 +15°C° 0.1 mm 1 mps 738 mmHg 88%
21:00 +14°C° 0 mm 2 mps 738 mmHg 90%
22:00 +13°C° 0 mm 2 mps 738 mmHg 92%
23:00 +12°C° 0 mm 2 mps 739 mmHg 94%

4 August, Wednesday

Time Temperature Precipitation Wind Pressure Humidity
00:00 +12°C° 0 mm 2 mps 739 mmHg 95%
01:00 +12°C° 0 mm 2 mps 740 mmHg 96%
02:00 +10°C° 0 mm 2 mps 740 mmHg 97%
03:00 +10°C° 0 mm 2 mps 740 mmHg 97%
04:00 +10°C° 0 mm 2 mps 741 mmHg 97%
05:00 +11°C° 0 mm 1 mps 741 mmHg 97%
06:00 +13°C° 0 mm 2 mps 741 mmHg 87%
07:00 +15°C° 0 mm 2 mps 741 mmHg 77%
08:00 +17°C° 0 mm 2 mps 742 mmHg 67%
09:00 +18°C° 0 mm 2 mps 742 mmHg 59%
10:00 +19°C° 0 mm 2 mps 742 mmHg 51%
11:00 +21°C° 0 mm 2 mps 742 mmHg 43%
12:00 +21°C° 0 mm 2 mps 742 mmHg 40%
13:00 +23°C° 0 mm 2 mps 742 mmHg 38%
14:00 +24°C° 0 mm 2 mps 742 mmHg 35%
15:00 +23°C° 0 mm 2 mps 742 mmHg 37%
16:00 +23°C° 0 mm 2 mps 742 mmHg 39%
17:00 +23°C° 0 mm 2 mps 742 mmHg 41%
18:00 +19°C° 0 mm 2 mps 743 mmHg 49%
19:00 +18°C° 0 mm 1 mps 743 mmHg 57%
20:00 +15°C° 0 mm 1 mps 743 mmHg 64%
21:00 +14°C° 0 mm 1 mps 743 mmHg 66%
22:00 +14°C° 0 mm 1 mps 743 mmHg 68%
23:00 +13°C° 0 mm 1 mps 743 mmHg 70%
Show more

We Need Your Consent

Meteoprog and our Service Providers may store and access personal data such as cookies, device identifiers or other similar technologies on your device and process such data to personalise content and ads, as well as provide social media features and to analyse the traffic.

  • Store and/or access information on your device

    Cookies, device identifiers or other information can be stored or accessed on your device for the purposes indicated above.

  • Personalised ads and content, ad and content measurement, audience insights, and products development

    Ads and content can be personalised based on a profile. More data can be added to better personalise ads and content. Ad and content performance can be measured. Insights about the audience who saw the ads and content can be derived. Such data can be used to develop or improve user’s experience, systems and software.

By clicking ‘I Agree’ you will allow the use of indicated cookies, device identifiers, web beacons or other similar technologies. Your settings can be changed in the browser on your device.

For certain purposes, legitimate interests may be relied on, rather than consent. You can read more about this in our Privacy and Cookie Policy.